Showing default

COSMOS 894, 9846

Orbit data source: Space-Track

COSMOS 894, 9846 is a payload satellite owned by VMF (CIS) in LEO that was launched on Mon, 21 Feb 1977 UTC via a KOSMOS 11K65M launch vehicle from the Plesetsk Missile And Space Complex (PKMTR). Payload-class satellites include a variety of spacecraft equipped with specific instruments for various scientific and technological missions. These include communications satellites like Starlink; space stations such as the ISS; scientific satellites like the Hubble; Earth observation satellites from companies like Planet Labs, Umbra, and HawkEye 360; GPS; miniature CubeSats for education and research; and military/defense satellites.

Loading next visibility...
Identifier
9846, 1977-013A
Orbit
LEO
Country
Flag of CISCIS
Related business
Manufacturer
Omsk Av. Zav.
Mission
Defense Navigation
Bus & Motor
KAUR-1 11F627, Unknown motor
Mass
800 kg wet, 800 kg dry
Launch date (UTC)
1977-02-21 (49 years ago)
Launch vehicle
KOSMOS 11K65M
Launch site
Plesetsk Missile And Space Complex (PKMTR)
Object type
Payload
Rocket body
Debris
Shape & HBR
Cyl, 2.5 m
Radar Cross Section
9.978 m², Large (>1 m²)

Expand to show TLE details & history
Last TLE update: 19 hours ago

TLE from 19 hours ago
0 COSMOS 894
1 09846U 77013A   25260.66908061  .00000067  00000-0  55252-4 0  9992
2 09846  82.9415 298.7498 0028584 246.9799 236.6781 13.74175980434748
Epoch: 2025-09-17T16:03Z
TLE epoch observation values (Epoch: 2025-09-17T16:03:28.564Z)
Latitude
56.05836°
Longitude
-129.50686°
Altitude
1,005.561 km
Speed
7.348 km/s
True Right ascension
07h 12m 48s
True Declination
55° 54' 15"
Sunlit
Object was in daylight at epoch
Visualization orbit readout
Latitude
Unknown
Longitude
Unknown
Altitude
Unknown
Speed
Unknown
Apparent Right ascension
Unknown
Apparent Declination
Unknown
Sunlit
N/A
Visualization observer readout
Local Sidereal Time
03:24:30
Azimuth
Unknown
Elevation
Unknown
Doppler factor
Unknown
Orbital elements
Apogee altitude
1,002.804 km
Perigee altitude
960.729 km
Semi-major axis
7,359.904 km
Eccentricity
0.00286
Inclination
82.9415°
RAAN
298.7498°
Arg. of periapsis
246.9799°
True anomaly
236.40494°
Mean anomaly
236.6781°
Eccentric anomaly
236.54147°
Mean motion
3.43744 °/min
Orbital period
104.73 mins
BSTAR
0.000055252
Loading maneuver chart data...
Computing Atmospheric mass density...
Loading historical data...
Loading historical data...
Loading historical data...
Loading historical data...
Loading historical data...
Loading historical data...
Loading historical data...
Other satellites on launch #13 in the year 1977 (1977-02-21 UTC)

Documentation

Showing up to 5 results
|